Regional Weather Roundup
Issued by NWS Cleveland, OH

Home | Current Version | Previous Version | Graphics & Text | Print | Product List | Glossary On
Versions: 1 2 3 4 5 6 7 8 9 10 11 12 13 14 15 16 17 18 19 20 21 22 23 24 25 26 27 28 29 30 31 32 33 34 35 36 37 38 39 40 41 42 43 44 45 46 47 48 49 50
000
ASUS41 KCLE 211110
RWRCLE
OHIO REGIONAL WEATHER ROUNDUP
NATIONAL WEATHER SERVICE WILMINGTON, OH
700 AM EDT THU SEP 21 2017

NOTE: "FAIR" INDICATES FEW OR NO CLOUDS BELOW 12,000 FEET WITH NO
SIGNIFICANT WEATHER AND/OR OBSTRUCTIONS TO VISIBILITY.

OHZ001>008-015>018-024>027-034-035-043-044-211200-
   NORTHWEST OHIO

CITY           SKY/WX    TMP DP  RH WIND       PRES   REMARKS
DEFIANCE       MOCLDY    68  65  90 S3        30.07R FOG
FINDLAY        FAIR      69  64  84 SE3       30.07R
TOLEDO EXPRESS FAIR      65  65 100 CALM      30.07R
TOLEDO EXEC    MOCLDY    68  65  90 SE3       30.07S
LIMA           FAIR      69  67  93 S8        30.08R
$$

OHZ009>014-019>023-028>033-038-089-211200-
   NORTHEAST OHIO

CITY           SKY/WX    TMP DP  RH WIND       PRES   REMARKS
CLE-HOPKINS    FAIR      67  63  87 CALM      30.11R
CLE-LAKEFRONT  FAIR      69  63  81 S7        30.08R
CUY CO. ARPT   PTCLDY    66  63  88 SE5       30.10
LORAIN-ELYRIA  FAIR      61  57  87 S3        30.10R FOG
ASHTABULA      FAIR      58  58 100 CALM      30.11R
AKRON-CANTON   FAIR      64  61  90 SE3       30.11R
WOOSTER        FOG       57  56  96 CALM      30.11S VSB 1/4
MANSFIELD      FAIR      65  64  97 S3        30.11R
YOUNGSTOWN     FAIR      60  60 100 CALM      30.11R FOG
$$

OHZ042-051>053-060>062-070>072-077>081-211200-
  SOUTHWEST OHIO

CITY           SKY/WX    TMP DP  RH WIND       PRES   REMARKS
CINC-COVINGTON FAIR      67  67 100 CALM      30.09R
CINC-LUNKEN    FOG       65  65 100 CALM      30.10R VSB 1/4
HAMILTON       FAIR      63  63 100 CALM      30.09R FOG
DAYTON         FAIR      68  65  90 S3        30.10R
WRIGHT-PAT AFB MOCLDY    65  65 100 CALM      30.09R FOG
DAYTON GENERAL FAIR      65  63  93 E3        30.09R
WILMINGTON     FAIR      61  61 100 CALM      30.10R FOG
$$

OHZ036-037-039>041-045>050-054>059-063>069-073>076-082>088-211200-
  CENTRAL AND SOUTHEAST OHIO

CITY           SKY/WX    TMP DP  RH WIND       PRES   REMARKS
COLUMBUS       FAIR      66  65  96 CALM      30.09R
OSU AIRPORT    FOG       63  63 100 CALM      30.10R VSB 1/4
BOLTON FIELD   NOT AVBL
RICKENBACK AFB FAIR      62  62 100 CALM      30.09R
NEWARK         FOG       62  61  96 CALM      30.10R VSB 1/4
MARION         FAIR      64  62  93 S5        30.10R FOG
LANCASTER      FOG       59  59 100 CALM      30.11R VSB 1/4
ZANESVILLE     FAIR      61  59  93 CALM      30.10S FOG
NEW PHILLY     FOG       63  63 100 CALM      30.11S VSB 1/4
$$




USA.gov is the U.S. government's official web portal to all federal, state and local government web resources and services.